Regional Weather Roundup
Issued by NWS

Home | Current Version | Previous Version | Graphics & Text | Print | Product List | Glossary Off
Versions: 1 2 3 4 5 6 7 8 9 10 11 12 13 14 15 16 17 18 19 20 21 22 23 24 25 26 27 28 29 30 31 32 33 34 35 36 37 38 39 40 41 42 43 44 45 46 47 48 49 50

000
ASUS43 KTOP 010259
RWRKS

WEATHER ROUNDUP FOR KANSAS
NATIONAL WEATHER SERVICE GOODLAND KS
1000 PM CDT TUE JUN 30 2015

NOTE:  "FAIR" INDICATES FEW OR NO CLOUDS BELOW 12,000 FEET WITH NO
SIGNIFICANT WEATHER AND/OR OBSTRUCTIONS TO VISIBILITY.

KSZ001>006-013>018-027>032-041>047-010400-
NORTHWEST KANSAS

CITY           SKY/WX    TMP DP  RH WIND       PRES   REMARKS
GOODLAND       PTCLDY    81  50  33 S9        29.93R
HAYS           CLEAR     88  52  29 SW13      29.84R
HILL CITY      PTCLDY    87  50  27 SW7       29.83R
RUSSELL        PTCLDY    86  54  33 S12       29.81R
$$

KSZ061>065-074>080-084>089-010400-
SOUTHWEST KANSAS

CITY           SKY/WX    TMP DP  RH WIND       PRES   REMARKS
DODGE CITY     CLEAR     79  51  37 S10       29.91S
ELKHART          N/A     80  51  36 S10         N/A
GARDEN CITY    CLEAR     78  55  44 S8        29.91S
GREAT BEND     CLEAR     84  55  37 S13       29.86R
LIBERAL        CLEAR     81  54  39 S13       29.96R
$$

KSZ066>073-081>083-090>101-010400-
SOUTHEAST KANSAS

CITY           SKY/WX    TMP DP  RH WIND       PRES   REMARKS
CHANUTE        PTCLDY    80  70  71 S8        29.89R
COFFEYVILLE    MOCLDY    82  70  66 S7        29.89R
HUTCHINSON     MOCLDY    86  57  37 S10       29.85S
MEDICINE LODGE   N/A     84  59  42 S9        29.88R
NEWTON         MOCLDY    82  57  42 S8        29.89R
PARSONS        MOCLDY    81  71  71 S5        29.90R
WICHITA INTL   MOCLDY    81  59  47 S10       29.86R
WICHITA JABRA  PTCLDY    84  60  44 S12       29.86S
WINFIELD       PTCLDY    86  64  47 S10       29.89R
$$

KSZ007>012-019>026-033>040-048>060-102>105-010400-
NORTHEAST KANSAS

CITY           SKY/WX    TMP DP  RH WIND       PRES   REMARKS
CONCORDIA      MOCLDY    83  67  58 E10       29.82R
EMPORIA        PTCLDY    82  67  60 S10       29.85R
LAWRENCE       MOCLDY    78  67  68 SE7       29.87S
MANHATTAN      PTCLDY    83  68  60 SE3       29.83R
OLATHE IND     MOCLDY    79  67  66 SE9       29.90R
OLATHE EXE     MOCLDY    78  67  68 SE6       29.89S
SALINA         PTCLDY    84  60  44 S9        29.80S
TOPEKA BILLARD MOCLDY    80  68  66 E7        29.86S
TOPEKA FORBES  MOCLDY    82  66  58 SE9       29.86S
$$


USA.gov is the U.S. government's official web portal to all federal, state and local government web resources and services.